Denver, CO

5:58 AM MDT on July 29, 2017 (GMT -0600)
Denver International

Weather History for KDEN - July, 2013

Change the Weather History Date:

Thursday, July 25, 2013

  Actual Average Record
Temperature  
Mean Temperature 69 °F 75 °F  
Max Temperature 80 °F 90 °F 99 °F (1963)
Min Temperature 57 °F 60 °F 51 °F (1973)
Degree Days  
Heating Degree Days 0 0  
Month to date heating degree days 0 1  
Since 1 June heating degree days 29 63  
Since 1 July heating degree days 0 1  
Cooling Degree Days 4 10  
Month to date cooling degree days 260 229  
Year to date cooling degree days 523 384  
Since 1 June cooling degree days 481 362  
Growing Degree Days 20 (Base 50)    
Moisture  
Dew Point 53 °F    
Average Humidity 60    
Maximum Humidity 84    
Minimum Humidity 36    
Precipitation  
Precipitation T in 0.08 in 2.69 in (1998)
Month to date precipitation 1.48 1.69  
Year to date precipitation 7.47 9.20  
Snow  
Snow 0.00 in - - ()
Month to date snowfall 0  
Since 1 June snowfall 0  
Since 1 July snowfall 0  
Snow Depth 0.00 in    
Sea Level Pressure  
Sea Level Pressure 30.01 in    
Wind  
Wind Speed 8 mph (West)    
Max Wind Speed 23 mph    
Max Gust Speed 29 mph    
Visibility 10 miles    
Events Rain    
T = Trace of Precipitation, MM = Missing Value Source: NWS Daily Summary

Daily Weather History Graph

Daily Weather History Graph

Search for Another Location

Airport or City:

Trip Planner

Search our weather history database for the weather conditions in past years. The results will help you decide how hot, cold, wet, or windy it might be!

Date:

Astronomy

Jul. 25, 2013 Rise Set
Actual Time 5:51 AM MDT 8:18 PM MDT
Civil Twilight 5:20 AM MDT 8:49 PM MDT
Nautical Twilight 4:42 AM MDT 9:27 PM MDT
Astronomical Twilight 3:59 AM MDT 10:09 PM MDT
Moon 10:01 PM MDT (7/25) 9:23 AM MDT (7/25)
Length of Visible Light 15h 28m
Length of Day
14h 27m
Waning Gibbous, 88% of the Moon is Illuminated
Jul 25
Waning Gibbous
Jul 29
Last Quarter
Aug 6
New
Aug 14
First Quarter
Aug 20
Full

Hourly Weather History & Observations

Time (MDT) Temp. Dew Point Humidity Pressure Visibility Wind Dir Wind Speed Gust Speed Precip Events Conditions
12:53 AM 60.1 °F 54.0 °F 80% 29.97 in 10.0 mi East 9.2 mph - N/A   Mostly Cloudy
1:53 AM 59.0 °F 54.0 °F 83% 29.98 in 10.0 mi WNW 15.0 mph - N/A   Mostly Cloudy
2:53 AM 59.0 °F 54.0 °F 83% 29.96 in 10.0 mi WNW 9.2 mph - N/A   Mostly Cloudy
3:53 AM 59.0 °F 54.0 °F 83% 29.92 in 10.0 mi SW 6.9 mph - N/A   Mostly Cloudy
4:53 AM 59.0 °F 53.1 °F 81% 29.93 in 10.0 mi SSW 9.2 mph - N/A   Mostly Cloudy
5:53 AM 59.0 °F 53.1 °F 81% 29.91 in 9.0 mi SSW 6.9 mph - N/A   Mostly Cloudy
6:53 AM 61.0 °F 54.0 °F 78% 29.92 in 10.0 mi WSW 9.2 mph - N/A   Mostly Cloudy
7:53 AM 64.0 °F 54.0 °F 70% 29.92 in 10.0 mi Calm Calm - N/A   Mostly Cloudy
8:53 AM 64.9 °F 54.0 °F 68% 29.95 in 10.0 mi West 6.9 mph - N/A   Mostly Cloudy
9:53 AM 68.0 °F 53.1 °F 59% 29.96 in 10.0 mi Calm Calm - N/A   Mostly Cloudy
10:53 AM 71.1 °F 51.1 °F 49% 29.99 in 10.0 mi Calm Calm - N/A   Overcast
11:53 AM 75.0 °F 51.1 °F 43% 30.02 in 10.0 mi North 12.7 mph - N/A   Mostly Cloudy
12:53 PM 79.0 °F 51.1 °F 38% 30.00 in 10.0 mi ENE 9.2 mph 18.4 mph N/A   Mostly Cloudy
1:53 PM 80.1 °F 52.0 °F 38% 30.00 in 10.0 mi North 13.8 mph 20.7 mph N/A   Mostly Cloudy
2:53 PM 73.9 °F 54.0 °F 50% 30.05 in 10.0 mi North 17.3 mph - N/A   Mostly Cloudy
3:53 PM 64.0 °F 59.0 °F 84% 30.11 in 9.0 mi West 12.7 mph - 0.00 in Rain Light Rain
4:53 PM 73.0 °F 55.9 °F 55% 30.06 in 10.0 mi WNW 15.0 mph - 0.00 in   Mostly Cloudy
5:53 PM 73.9 °F 53.1 °F 48% 30.04 in 10.0 mi West 12.7 mph - N/A   Mostly Cloudy
6:53 PM 73.9 °F 51.1 °F 45% 30.04 in 10.0 mi West 10.4 mph - N/A   Scattered Clouds
7:53 PM 72.0 °F 51.1 °F 48% 30.05 in 10.0 mi WNW 6.9 mph - N/A   Mostly Cloudy
8:53 PM 70.0 °F 48.9 °F 47% 30.06 in 10.0 mi NW 3.5 mph - N/A   Mostly Cloudy
9:53 PM 69.1 °F 48.9 °F 49% 30.07 in 10.0 mi WSW 3.5 mph - N/A   Scattered Clouds
10:53 PM 64.0 °F 53.1 °F 67% 30.09 in 10.0 mi SW 6.9 mph - N/A   Mostly Cloudy
11:53 PM 64.0 °F 53.1 °F 67% 30.10 in 10.0 mi WSW 8.1 mph - N/A   Mostly Cloudy